DELTA 1 DEB

基本信息
目录编号:
3123
目录名称:
DELTA 1 DEB
国际标识:
1967-114D
轨道中心:
EARTH
物体状态:
在轨
发射日期:
1967-11-10 UTC
轨道信息
数据来源: 国际轨道数据
星历时间: 2026-07-13T15:49:53+0800
半长轴: 7850.558km
偏心率: 0.002826
轨道倾角: 102.481°
近地点辐角: 212.173°
升交点赤经: 330.288°
平近点角: 176.609°
近地点: 1450.235km
远地点: 1494.607km
周期: 115.375分钟
每日圈数: 12.481076
详细信息
发射场:
AFWTR
轨道高度:
LEO
数据来源:
AOE Integration Group
参考系:
TEME
时间系统:
UTC
历元类型:
SGP4
2D轨道图
3D轨道图
轨道高度分析图
轨道倾角分析图
轨道综合分析图
查看轨道综合分析图